User: anonymous
Location: Ostrava
(49.8330°N, 18.2830°E)
Time: 07:39:40
(UTC+02:00)
Language:

Cosmos 2221 - Orbit

View from above orbital plane
View from above orbital plane
View from above satellite
View from above satellite

Ground track
Ground track

The orbit data is extracted from the following two-line orbital elements,

1 22236U 92080A   14259.57652328  .00000978  00000-0  10879-3 0  2426
2 22236 082.5068 287.2017 0018900 092.1342 268.2039 14.86008172178016
Epoch (UTC): 16 September 2014 13:50:11
Eccentricity: 0.0018900
inclination: 82.5068°
perigee height: 597 km
apogee height: 623 km
right ascension of ascending node: 287.2017°
argument of perigee: 92.1342°
revolutions per day: 14.86008172
mean anomaly at epoch: 268.2039°
orbit number at epoch: 17801

The dashed part of the orbit path shows where the satellite is in the earth's shadow,  

DLR